Year,Month,Day,Hour,Minute,Value (Times are PST for temperature in C)
2017,02,11,00,00,3.40
2017,02,11,00,01,3.40
2017,02,11,00,02,3.40
2017,02,11,00,03,3.40
2017,02,11,00,04,3.30
2017,02,11,00,05,3.30
2017,02,11,00,06,3.30
2017,02,11,00,07,3.30
2017,02,11,00,08,3.30
2017,02,11,00,09,3.30
2017,02,11,00,10,3.30
2017,02,11,00,11,3.30
2017,02,11,00,12,3.30
2017,02,11,00,13,3.30
2017,02,11,00,14,3.40
2017,02,11,00,15,3.40
2017,02,11,00,16,3.40
2017,02,11,00,17,3.40
2017,02,11,00,18,3.40
2017,02,11,00,19,3.40
2017,02,11,00,20,3.40
2017,02,11,00,21,3.50
2017,02,11,00,22,3.50
2017,02,11,00,23,3.50
2017,02,11,00,24,3.50
2017,02,11,00,25,3.60
2017,02,11,00,26,3.60
2017,02,11,00,27,3.60
2017,02,11,00,28,3.50
2017,02,11,00,29,3.50
2017,02,11,00,30,3.50
2017,02,11,00,31,3.50
2017,02,11,00,32,3.50
2017,02,11,00,33,3.50
2017,02,11,00,34,3.50
2017,02,11,00,35,3.50
2017,02,11,00,36,3.50
2017,02,11,00,37,3.50
2017,02,11,00,38,3.50
2017,02,11,00,39,3.50
2017,02,11,00,40,3.50
2017,02,11,00,41,3.50
2017,02,11,00,42,3.50
2017,02,11,00,43,3.50
2017,02,11,00,44,3.60
2017,02,11,00,45,3.60
2017,02,11,00,46,3.60
2017,02,11,00,47,3.60
2017,02,11,00,48,3.60
2017,02,11,00,49,3.60
2017,02,11,00,50,3.60
2017,02,11,00,51,3.60
2017,02,11,00,52,3.60
2017,02,11,00,53,3.60
2017,02,11,00,54,3.60
2017,02,11,00,55,3.60
2017,02,11,00,56,3.60
2017,02,11,00,57,3.60
2017,02,11,00,58,3.60
2017,02,11,00,59,3.50
2017,02,11,01,00,3.50
2017,02,11,01,01,3.50
2017,02,11,01,02,3.50
2017,02,11,01,03,3.40
2017,02,11,01,04,3.40
2017,02,11,01,05,3.40
2017,02,11,01,06,3.40
2017,02,11,01,07,3.40
2017,02,11,01,08,3.40
2017,02,11,01,09,3.40
2017,02,11,01,10,3.40
2017,02,11,01,11,3.40
2017,02,11,01,12,3.40
2017,02,11,01,13,3.40
2017,02,11,01,14,3.40
2017,02,11,01,15,3.40
2017,02,11,01,16,3.40
2017,02,11,01,17,3.40
2017,02,11,01,18,3.40
2017,02,11,01,19,3.40
2017,02,11,01,20,3.30
2017,02,11,01,21,3.40
2017,02,11,01,22,3.40
2017,02,11,01,23,3.40
2017,02,11,01,24,3.40
2017,02,11,01,25,3.40
2017,02,11,01,26,3.40
2017,02,11,01,27,3.30
2017,02,11,01,28,3.30
2017,02,11,01,29,3.30
2017,02,11,01,30,3.30
2017,02,11,01,31,3.40
2017,02,11,01,32,3.40
2017,02,11,01,33,3.40
2017,02,11,01,34,3.40
2017,02,11,01,35,3.40
2017,02,11,01,36,3.40
2017,02,11,01,37,3.40
2017,02,11,01,38,3.40
2017,02,11,01,39,3.40
2017,02,11,01,40,3.40
2017,02,11,01,41,3.40
2017,02,11,01,42,3.40
2017,02,11,01,43,3.40
2017,02,11,01,44,3.40
2017,02,11,01,45,3.40
2017,02,11,01,46,3.40
2017,02,11,01,47,3.40
2017,02,11,01,48,3.40
2017,02,11,01,49,3.30
2017,02,11,01,50,3.30
2017,02,11,01,51,3.30
2017,02,11,01,52,3.30
2017,02,11,01,53,3.30
2017,02,11,01,54,3.30
2017,02,11,01,55,3.30
2017,02,11,01,56,3.30
2017,02,11,01,57,3.30
2017,02,11,01,58,3.30
2017,02,11,01,59,3.30
2017,02,11,02,00,3.30
2017,02,11,02,01,3.30
2017,02,11,02,02,3.30
2017,02,11,02,03,3.30
2017,02,11,02,04,3.30
2017,02,11,02,05,3.20
2017,02,11,02,06,3.20
2017,02,11,02,07,3.20
2017,02,11,02,08,3.20
2017,02,11,02,09,3.20
2017,02,11,02,10,3.10
2017,02,11,02,11,3.10
2017,02,11,02,12,3.10
2017,02,11,02,13,3.00
2017,02,11,02,14,3.00
2017,02,11,02,15,2.90
2017,02,11,02,16,2.90
2017,02,11,02,17,2.90
2017,02,11,02,18,2.90
2017,02,11,02,19,2.80
2017,02,11,02,20,2.80
2017,02,11,02,21,2.80
2017,02,11,02,22,2.80
2017,02,11,02,23,2.80
2017,02,11,02,24,2.80
2017,02,11,02,25,2.80
2017,02,11,02,26,2.80
2017,02,11,02,27,2.80
2017,02,11,02,28,2.80
2017,02,11,02,29,2.80
2017,02,11,02,30,2.70
2017,02,11,02,31,2.70
2017,02,11,02,32,2.70
2017,02,11,02,33,2.60
2017,02,11,02,34,2.60
2017,02,11,02,35,2.60
2017,02,11,02,36,2.60
2017,02,11,02,37,2.60
2017,02,11,02,38,2.60
2017,02,11,02,39,2.60
2017,02,11,02,40,2.60
2017,02,11,02,41,2.50
2017,02,11,02,42,2.50
2017,02,11,02,43,2.50
2017,02,11,02,44,2.50
2017,02,11,02,45,2.50
2017,02,11,02,46,2.50
2017,02,11,02,47,2.40
2017,02,11,02,48,2.40
2017,02,11,02,49,2.40
2017,02,11,02,50,2.40
2017,02,11,02,51,2.40
2017,02,11,02,52,2.40
2017,02,11,02,53,2.40
2017,02,11,02,54,2.50
2017,02,11,02,55,2.50
2017,02,11,02,56,2.60
2017,02,11,02,57,2.60
2017,02,11,02,58,2.70
2017,02,11,02,59,2.70
2017,02,11,03,00,2.70
2017,02,11,03,01,2.70
2017,02,11,03,02,2.80
2017,02,11,03,03,2.80
2017,02,11,03,04,2.80
2017,02,11,03,05,2.80
2017,02,11,03,06,2.80
2017,02,11,03,07,2.80
2017,02,11,03,08,2.80
2017,02,11,03,09,2.80
2017,02,11,03,10,2.80
2017,02,11,03,11,2.80
2017,02,11,03,12,2.80
2017,02,11,03,13,2.80
2017,02,11,03,14,2.70
2017,02,11,03,15,2.70
2017,02,11,03,16,2.60
2017,02,11,03,17,2.60
2017,02,11,03,18,2.50
2017,02,11,03,19,2.50
2017,02,11,03,20,2.50
2017,02,11,03,21,2.40
2017,02,11,03,22,2.40
2017,02,11,03,23,2.40
2017,02,11,03,24,2.40
2017,02,11,03,25,2.40
2017,02,11,03,26,2.30
2017,02,11,03,27,2.30
2017,02,11,03,28,2.30
2017,02,11,03,29,2.30
2017,02,11,03,30,2.30
2017,02,11,03,31,2.20
2017,02,11,03,32,2.20
2017,02,11,03,33,2.20
2017,02,11,03,34,2.10
2017,02,11,03,35,2.10
2017,02,11,03,36,2.10
2017,02,11,03,37,2.10
2017,02,11,03,38,2.00
2017,02,11,03,39,2.00
2017,02,11,03,40,2.00
2017,02,11,03,41,1.90
2017,02,11,03,42,1.90
2017,02,11,03,43,1.90
2017,02,11,03,44,1.90
2017,02,11,03,45,1.80
2017,02,11,03,46,1.80
2017,02,11,03,47,1.80
2017,02,11,03,48,1.80
2017,02,11,03,49,1.70
2017,02,11,03,50,1.70
2017,02,11,03,51,1.70
2017,02,11,03,52,1.70
2017,02,11,03,53,1.70
2017,02,11,03,54,1.60
2017,02,11,03,55,1.60
2017,02,11,03,56,1.60
2017,02,11,03,57,1.60
2017,02,11,03,58,1.60
2017,02,11,03,59,1.60
2017,02,11,04,00,1.60
2017,02,11,04,01,1.60
2017,02,11,04,02,1.60
2017,02,11,04,03,1.60
2017,02,11,04,04,1.60
2017,02,11,04,05,1.60
2017,02,11,04,06,1.60
2017,02,11,04,07,1.50
2017,02,11,04,08,1.40
2017,02,11,04,09,1.40
2017,02,11,04,10,1.50
2017,02,11,04,11,1.50
2017,02,11,04,12,1.50
2017,02,11,04,13,1.60
2017,02,11,04,14,1.60
2017,02,11,04,15,1.60
2017,02,11,04,16,1.70
2017,02,11,04,17,1.70
2017,02,11,04,18,1.80
2017,02,11,04,19,1.80
2017,02,11,04,20,1.80
2017,02,11,04,21,1.80
2017,02,11,04,22,1.70
2017,02,11,04,23,1.70
2017,02,11,04,24,1.70
2017,02,11,04,25,1.60
2017,02,11,04,26,1.50
2017,02,11,04,27,1.50
2017,02,11,04,28,1.50
2017,02,11,04,29,1.50
2017,02,11,04,30,1.50
2017,02,11,04,31,1.40
2017,02,11,04,32,1.40
2017,02,11,04,33,1.40
2017,02,11,04,34,1.40
2017,02,11,04,35,1.40
2017,02,11,04,36,1.40
2017,02,11,04,37,1.40
2017,02,11,04,38,1.40
2017,02,11,04,39,1.40
2017,02,11,04,40,1.30
2017,02,11,04,41,1.30
2017,02,11,04,42,1.30
2017,02,11,04,43,1.30
2017,02,11,04,44,1.30
2017,02,11,04,45,1.30
2017,02,11,04,46,1.30
2017,02,11,04,47,1.30
2017,02,11,04,48,1.30
2017,02,11,04,49,1.30
2017,02,11,04,50,1.30
2017,02,11,04,51,1.30
2017,02,11,04,52,1.30
2017,02,11,04,53,1.30
2017,02,11,04,54,1.30
2017,02,11,04,55,1.30
2017,02,11,04,56,1.20
2017,02,11,04,57,1.20
2017,02,11,04,58,1.20
2017,02,11,04,59,1.20
2017,02,11,05,00,1.20
2017,02,11,05,01,1.20
2017,02,11,05,02,1.20
2017,02,11,05,03,1.20
2017,02,11,05,04,1.20
2017,02,11,05,05,1.20
2017,02,11,05,06,1.20
2017,02,11,05,07,1.20
2017,02,11,05,08,1.20
2017,02,11,05,09,1.20
2017,02,11,05,10,1.10
2017,02,11,05,11,1.10
2017,02,11,05,12,1.10
2017,02,11,05,13,1.10
2017,02,11,05,14,1.10
2017,02,11,05,15,1.10
2017,02,11,05,16,1.00
2017,02,11,05,17,1.00
2017,02,11,05,18,0.90
2017,02,11,05,19,0.90
2017,02,11,05,20,0.90
2017,02,11,05,21,0.90
2017,02,11,05,22,0.90
2017,02,11,05,23,0.90
2017,02,11,05,24,0.90
2017,02,11,05,25,0.90
2017,02,11,05,26,1.00
2017,02,11,05,27,1.00
2017,02,11,05,28,1.00
2017,02,11,05,29,1.00
2017,02,11,05,30,1.00
2017,02,11,05,31,1.00
2017,02,11,05,32,1.00
2017,02,11,05,33,1.00
2017,02,11,05,34,1.00
2017,02,11,05,35,1.00
2017,02,11,05,36,1.00
2017,02,11,05,37,1.00
2017,02,11,05,38,1.00
2017,02,11,05,39,1.00
2017,02,11,05,40,1.00
2017,02,11,05,41,1.00
2017,02,11,05,42,1.00
2017,02,11,05,43,0.90
2017,02,11,05,44,0.90
2017,02,11,05,45,0.90
2017,02,11,05,46,0.90
2017,02,11,05,47,0.90
2017,02,11,05,48,0.90
2017,02,11,05,49,0.90
2017,02,11,05,50,0.90
2017,02,11,05,51,1.00
2017,02,11,05,52,1.00
2017,02,11,05,53,1.00
2017,02,11,05,54,1.00
2017,02,11,05,55,1.10
2017,02,11,05,56,1.10
2017,02,11,05,57,1.20
2017,02,11,05,58,1.20
2017,02,11,05,59,1.20
2017,02,11,06,00,1.30
2017,02,11,06,01,1.30
2017,02,11,06,02,1.40
2017,02,11,06,03,1.40
2017,02,11,06,04,1.40
2017,02,11,06,05,1.50
2017,02,11,06,06,1.50
2017,02,11,06,07,1.50
2017,02,11,06,08,1.50
2017,02,11,06,09,1.50
2017,02,11,06,10,1.40
2017,02,11,06,11,1.30
2017,02,11,06,12,1.30
2017,02,11,06,13,1.20
2017,02,11,06,14,1.20
2017,02,11,06,15,1.20
2017,02,11,06,16,1.20
2017,02,11,06,17,1.10
2017,02,11,06,18,1.20
2017,02,11,06,19,1.10
2017,02,11,06,20,1.10
2017,02,11,06,21,1.10
2017,02,11,06,22,1.10
2017,02,11,06,23,1.10
2017,02,11,06,24,1.10
2017,02,11,06,25,1.10
2017,02,11,06,26,1.00
2017,02,11,06,27,1.00
2017,02,11,06,28,1.00
2017,02,11,06,29,1.10
2017,02,11,06,30,1.00
2017,02,11,06,31,1.00
2017,02,11,06,32,1.00
2017,02,11,06,33,1.00
2017,02,11,06,34,1.00
2017,02,11,06,35,1.00
2017,02,11,06,36,1.00
2017,02,11,06,37,1.00
2017,02,11,06,38,0.90
2017,02,11,06,39,0.90
2017,02,11,06,40,0.90
2017,02,11,06,41,0.90
2017,02,11,06,42,1.00
2017,02,11,06,43,1.00
2017,02,11,06,44,0.90
2017,02,11,06,45,0.90
2017,02,11,06,46,0.90
2017,02,11,06,47,0.90
2017,02,11,06,48,0.80
2017,02,11,06,49,0.80
2017,02,11,06,50,0.80
2017,02,11,06,51,0.80
2017,02,11,06,52,0.80
2017,02,11,06,53,0.80
2017,02,11,06,54,0.80
2017,02,11,06,55,0.80
2017,02,11,06,56,0.90
2017,02,11,06,57,0.80
2017,02,11,06,58,0.80
2017,02,11,06,59,0.80
2017,02,11,07,00,0.80
2017,02,11,07,01,0.80
2017,02,11,07,02,0.80
2017,02,11,07,03,0.80
2017,02,11,07,04,0.80
2017,02,11,07,05,0.80
2017,02,11,07,06,0.80
2017,02,11,07,07,0.80
2017,02,11,07,08,0.80
2017,02,11,07,09,0.80
2017,02,11,07,10,0.80
2017,02,11,07,11,0.90
2017,02,11,07,12,0.90
2017,02,11,07,13,0.90
2017,02,11,07,14,0.90
2017,02,11,07,15,0.90
2017,02,11,07,16,0.90
2017,02,11,07,17,0.90
2017,02,11,07,18,0.90
2017,02,11,07,19,0.90
2017,02,11,07,20,1.00
2017,02,11,07,21,1.00
2017,02,11,07,22,1.00
2017,02,11,07,23,1.00
2017,02,11,07,24,0.90
2017,02,11,07,25,0.90
2017,02,11,07,26,0.90
2017,02,11,07,27,0.90
2017,02,11,07,28,0.90
2017,02,11,07,29,0.90
2017,02,11,07,30,0.90
2017,02,11,07,31,0.90
2017,02,11,07,32,0.90
2017,02,11,07,33,0.90
2017,02,11,07,34,0.90
2017,02,11,07,35,0.90
2017,02,11,07,36,0.90
2017,02,11,07,37,0.90
2017,02,11,07,38,0.90
2017,02,11,07,39,0.90
2017,02,11,07,40,0.90
2017,02,11,07,41,0.90
2017,02,11,07,42,0.90
2017,02,11,07,43,0.90
2017,02,11,07,44,1.00
2017,02,11,07,45,1.00
2017,02,11,07,46,1.00
2017,02,11,07,47,1.10
2017,02,11,07,48,1.10
2017,02,11,07,49,1.10
2017,02,11,07,50,1.10
2017,02,11,07,51,1.10
2017,02,11,07,52,1.10
2017,02,11,07,53,1.10
2017,02,11,07,54,1.10
2017,02,11,07,55,1.00
2017,02,11,07,56,1.00
2017,02,11,07,57,1.00
2017,02,11,07,58,1.00
2017,02,11,07,59,0.90
2017,02,11,08,00,0.90
2017,02,11,08,01,0.90
2017,02,11,08,02,0.90
2017,02,11,08,03,0.90
2017,02,11,08,04,0.90
2017,02,11,08,05,0.90
2017,02,11,08,06,0.90
2017,02,11,08,07,0.90
2017,02,11,08,08,0.90
2017,02,11,08,09,0.90
2017,02,11,08,10,0.90
2017,02,11,08,11,0.90
2017,02,11,08,12,0.90
2017,02,11,08,13,0.90
2017,02,11,08,14,0.90
2017,02,11,08,15,0.90
2017,02,11,08,16,0.90
2017,02,11,08,17,0.90
2017,02,11,08,18,0.90
2017,02,11,08,19,0.90
2017,02,11,08,20,0.90
2017,02,11,08,21,0.90
2017,02,11,08,22,0.90
2017,02,11,08,23,0.90
2017,02,11,08,24,0.90
2017,02,11,08,25,0.80
2017,02,11,08,26,0.90
2017,02,11,08,27,0.90
2017,02,11,08,28,0.90
2017,02,11,08,29,0.90
2017,02,11,08,30,0.90
2017,02,11,08,31,0.90
2017,02,11,08,32,1.00
2017,02,11,08,33,1.00
2017,02,11,08,34,1.10
2017,02,11,08,35,1.10
2017,02,11,08,36,1.10
2017,02,11,08,37,1.10
2017,02,11,08,38,1.20
2017,02,11,08,39,1.20
2017,02,11,08,40,1.20
2017,02,11,08,41,1.20
2017,02,11,08,42,1.20
2017,02,11,08,43,1.20
2017,02,11,08,44,1.30
2017,02,11,08,45,1.30
2017,02,11,08,46,1.30
2017,02,11,08,47,1.30
2017,02,11,08,48,1.30
2017,02,11,08,49,1.30
2017,02,11,08,50,1.30
2017,02,11,08,51,1.30
2017,02,11,08,52,1.40
2017,02,11,08,53,1.40
2017,02,11,08,54,1.50
2017,02,11,08,55,1.60
2017,02,11,08,56,1.70
2017,02,11,08,57,1.80
2017,02,11,08,58,1.80
2017,02,11,08,59,1.90
2017,02,11,09,00,1.90
2017,02,11,09,01,2.00
2017,02,11,09,02,2.00
2017,02,11,09,03,2.10
2017,02,11,09,04,2.10
2017,02,11,09,05,2.10
2017,02,11,09,06,2.20
2017,02,11,09,07,2.20
2017,02,11,09,08,2.20
2017,02,11,09,09,2.30
2017,02,11,09,10,2.40
2017,02,11,09,11,2.40
2017,02,11,09,12,2.50
2017,02,11,09,13,2.60
2017,02,11,09,14,2.70
2017,02,11,09,15,2.70
2017,02,11,09,16,2.70
2017,02,11,09,17,2.80
2017,02,11,09,18,2.80
2017,02,11,09,19,2.90
2017,02,11,09,20,3.00
2017,02,11,09,21,3.10
2017,02,11,09,22,3.30
2017,02,11,09,23,3.40
2017,02,11,09,24,3.40
2017,02,11,09,25,3.50
2017,02,11,09,26,3.60
2017,02,11,09,27,3.70
2017,02,11,09,28,3.70
2017,02,11,09,29,3.80
2017,02,11,09,30,3.80
2017,02,11,09,31,3.90
2017,02,11,09,32,4.00
2017,02,11,09,33,4.10
2017,02,11,09,34,4.10
2017,02,11,09,35,4.20
2017,02,11,09,36,4.20
2017,02,11,09,37,4.30
2017,02,11,09,38,4.40
2017,02,11,09,39,4.40
2017,02,11,09,40,4.50
2017,02,11,09,41,4.50
2017,02,11,09,42,4.60
2017,02,11,09,43,4.60
2017,02,11,09,44,4.70
2017,02,11,09,45,4.80
2017,02,11,09,46,4.80
2017,02,11,09,47,4.80
2017,02,11,09,48,4.80
2017,02,11,09,49,4.80
2017,02,11,09,50,4.80
2017,02,11,09,51,4.90
2017,02,11,09,52,4.90
2017,02,11,09,53,4.90
2017,02,11,09,54,5.00
2017,02,11,09,55,5.00
2017,02,11,09,56,5.10
2017,02,11,09,57,5.10
2017,02,11,09,58,5.20
2017,02,11,09,59,5.20
2017,02,11,10,00,5.20
2017,02,11,10,01,5.30
2017,02,11,10,02,5.30
2017,02,11,10,03,5.30
2017,02,11,10,04,5.30
2017,02,11,10,05,5.30
2017,02,11,10,06,5.30
2017,02,11,10,07,5.40
2017,02,11,10,08,5.40
2017,02,11,10,09,5.50
2017,02,11,10,10,5.50
2017,02,11,10,11,5.60
2017,02,11,10,12,5.60
2017,02,11,10,13,5.70
2017,02,11,10,14,5.70
2017,02,11,10,15,5.80
2017,02,11,10,16,5.80
2017,02,11,10,17,5.80
2017,02,11,10,18,5.80
2017,02,11,10,19,5.80
2017,02,11,10,20,5.80
2017,02,11,10,21,5.80
2017,02,11,10,22,5.80
2017,02,11,10,23,5.80
2017,02,11,10,24,5.80
2017,02,11,10,25,5.90
2017,02,11,10,26,5.90
2017,02,11,10,27,5.90
2017,02,11,10,28,6.00
2017,02,11,10,29,6.00
2017,02,11,10,30,6.00
2017,02,11,10,31,6.00
2017,02,11,10,32,6.00
2017,02,11,10,33,6.00
2017,02,11,10,34,6.00
2017,02,11,10,35,6.10
2017,02,11,10,36,6.10
2017,02,11,10,37,6.10
2017,02,11,10,38,6.20
2017,02,11,10,39,6.20
2017,02,11,10,40,6.20
2017,02,11,10,41,6.30
2017,02,11,10,42,6.30
2017,02,11,10,43,6.30
2017,02,11,10,44,6.40
2017,02,11,10,45,6.50
2017,02,11,10,46,6.50
2017,02,11,10,47,6.60
2017,02,11,10,48,6.60
2017,02,11,10,49,6.60
2017,02,11,10,50,6.60
2017,02,11,10,51,6.60
2017,02,11,10,52,6.60
2017,02,11,10,53,6.60
2017,02,11,10,54,6.60
2017,02,11,10,55,6.70
2017,02,11,10,56,6.70
2017,02,11,10,57,6.70
2017,02,11,10,58,6.80
2017,02,11,10,59,6.80
2017,02,11,11,00,6.80
2017,02,11,11,01,6.80
2017,02,11,11,02,6.70
2017,02,11,11,03,6.80
2017,02,11,11,04,6.80
2017,02,11,11,05,6.80
2017,02,11,11,06,6.80
2017,02,11,11,07,6.80
2017,02,11,11,08,6.80
2017,02,11,11,09,6.80
2017,02,11,11,10,6.80
2017,02,11,11,11,6.80
2017,02,11,11,12,6.80
2017,02,11,11,13,6.90
2017,02,11,11,14,6.90
2017,02,11,11,15,6.90
2017,02,11,11,16,6.90
2017,02,11,11,17,7.00
2017,02,11,11,18,7.00
2017,02,11,11,19,7.00
2017,02,11,11,20,7.10
2017,02,11,11,21,7.10
2017,02,11,11,22,7.10
2017,02,11,11,23,7.20
2017,02,11,11,24,7.20
2017,02,11,11,25,7.20
2017,02,11,11,26,7.30
2017,02,11,11,27,7.30
2017,02,11,11,28,7.30
2017,02,11,11,29,7.30
2017,02,11,11,30,7.40
2017,02,11,11,31,7.40
2017,02,11,11,32,7.50
2017,02,11,11,33,7.60
2017,02,11,11,34,7.60
2017,02,11,11,35,7.60
2017,02,11,11,36,7.60
2017,02,11,11,37,7.60
2017,02,11,11,38,7.60
2017,02,11,11,39,7.50
2017,02,11,11,40,7.60
2017,02,11,11,41,7.60
2017,02,11,11,42,7.60
2017,02,11,11,43,7.60
2017,02,11,11,44,7.60
2017,02,11,11,45,7.70
2017,02,11,11,46,7.70
2017,02,11,11,47,7.70
2017,02,11,11,48,7.70
2017,02,11,11,49,7.70
2017,02,11,11,50,7.70
2017,02,11,11,51,7.70
2017,02,11,11,52,7.70
2017,02,11,11,53,7.70
2017,02,11,11,54,7.70
2017,02,11,11,55,7.80
2017,02,11,11,56,7.80
2017,02,11,11,57,7.80
2017,02,11,11,58,7.90
2017,02,11,11,59,7.90
2017,02,11,12,00,7.90
2017,02,11,12,01,7.90
2017,02,11,12,02,7.90
2017,02,11,12,03,8.00
2017,02,11,12,04,8.10
2017,02,11,12,05,8.10
2017,02,11,12,06,8.10
2017,02,11,12,07,8.20
2017,02,11,12,08,8.20
2017,02,11,12,09,8.30
2017,02,11,12,10,8.30
2017,02,11,12,11,8.30
2017,02,11,12,12,8.20
2017,02,11,12,13,8.20
2017,02,11,12,14,8.20
2017,02,11,12,15,8.20
2017,02,11,12,16,8.20
2017,02,11,12,17,8.20
2017,02,11,12,18,8.30
2017,02,11,12,19,8.30
2017,02,11,12,20,8.30
2017,02,11,12,21,8.30
2017,02,11,12,22,8.30
2017,02,11,12,23,8.30
2017,02,11,12,24,8.30
2017,02,11,12,25,8.40
2017,02,11,12,26,8.50
2017,02,11,12,27,8.60
2017,02,11,12,28,8.60
2017,02,11,12,29,8.60
2017,02,11,12,30,8.70
2017,02,11,12,31,8.70
2017,02,11,12,32,8.70
2017,02,11,12,33,8.70
2017,02,11,12,34,8.70
2017,02,11,12,35,8.70
2017,02,11,12,36,8.80
2017,02,11,12,37,8.90
2017,02,11,12,38,8.90
2017,02,11,12,39,8.90
2017,02,11,12,40,8.90
2017,02,11,12,41,8.90
2017,02,11,12,42,8.90
2017,02,11,12,43,8.80
2017,02,11,12,44,8.80
2017,02,11,12,45,8.80
2017,02,11,12,46,8.80
2017,02,11,12,47,8.80
2017,02,11,12,48,8.80
2017,02,11,12,49,8.70
2017,02,11,12,50,8.70
2017,02,11,12,51,8.70
2017,02,11,12,52,8.70
2017,02,11,12,53,8.70
2017,02,11,12,54,8.70
2017,02,11,12,55,8.70
2017,02,11,12,56,8.70
2017,02,11,12,57,8.70
2017,02,11,12,58,8.60
2017,02,11,12,59,8.70
2017,02,11,13,00,8.70
2017,02,11,13,01,8.60
2017,02,11,13,02,8.60
2017,02,11,13,03,8.60
2017,02,11,13,04,8.70
2017,02,11,13,05,8.80
2017,02,11,13,06,8.80
2017,02,11,13,07,8.80
2017,02,11,13,08,8.90
2017,02,11,13,09,8.90
2017,02,11,13,10,8.90
2017,02,11,13,11,8.90
2017,02,11,13,12,9.00
2017,02,11,13,13,9.10
2017,02,11,13,14,9.10
2017,02,11,13,15,9.10
2017,02,11,13,16,9.10
2017,02,11,13,17,9.20
2017,02,11,13,18,9.20
2017,02,11,13,19,9.30
2017,02,11,13,20,9.30
2017,02,11,13,21,9.40
2017,02,11,13,22,9.40
2017,02,11,13,23,9.40
2017,02,11,13,24,9.40
2017,02,11,13,25,9.40
2017,02,11,13,26,9.40
2017,02,11,13,27,9.30
2017,02,11,13,28,9.30
2017,02,11,13,29,9.30
2017,02,11,13,30,9.20
2017,02,11,13,31,9.20
2017,02,11,13,32,9.20
2017,02,11,13,33,9.20
2017,02,11,13,34,9.10
2017,02,11,13,35,9.10
2017,02,11,13,36,9.10
2017,02,11,13,37,9.10
2017,02,11,13,38,9.20
2017,02,11,13,39,9.20
2017,02,11,13,40,9.20
2017,02,11,13,41,9.20
2017,02,11,13,42,9.10
2017,02,11,13,43,9.10
2017,02,11,13,44,9.10
2017,02,11,13,45,9.00
2017,02,11,13,46,8.90
2017,02,11,13,47,8.90
2017,02,11,13,48,8.80
2017,02,11,13,49,8.90
2017,02,11,13,50,8.90
2017,02,11,13,51,8.80
2017,02,11,13,52,8.90
2017,02,11,13,53,8.90
2017,02,11,13,54,8.80
2017,02,11,13,55,8.80
2017,02,11,13,56,8.80
2017,02,11,13,57,8.80
2017,02,11,13,58,8.80
2017,02,11,13,59,8.70
2017,02,11,14,00,8.70
2017,02,11,14,01,8.60
2017,02,11,14,02,8.60
2017,02,11,14,03,8.60
2017,02,11,14,04,8.60
2017,02,11,14,05,8.60
2017,02,11,14,06,8.60
2017,02,11,14,07,8.60
2017,02,11,14,08,8.60
2017,02,11,14,09,8.70
2017,02,11,14,10,8.70
2017,02,11,14,11,8.70
2017,02,11,14,12,8.80
2017,02,11,14,13,8.80
2017,02,11,14,14,8.80
2017,02,11,14,15,8.80
2017,02,11,14,16,8.80
2017,02,11,14,17,8.90
2017,02,11,14,18,8.90
2017,02,11,14,19,8.80
2017,02,11,14,20,8.70
2017,02,11,14,21,8.60
2017,02,11,14,22,8.50
2017,02,11,14,23,8.40
2017,02,11,14,24,8.30
2017,02,11,14,25,8.20
2017,02,11,14,26,8.10
2017,02,11,14,27,8.10
2017,02,11,14,28,8.10
2017,02,11,14,29,8.00
2017,02,11,14,30,7.90
2017,02,11,14,31,7.80
2017,02,11,14,32,7.80
2017,02,11,14,33,7.80
2017,02,11,14,34,7.70
2017,02,11,14,35,7.60
2017,02,11,14,36,7.50
2017,02,11,14,37,7.50
2017,02,11,14,38,7.50
2017,02,11,14,39,7.50
2017,02,11,14,40,7.40
2017,02,11,14,41,7.40
2017,02,11,14,42,7.30
2017,02,11,14,43,7.30
2017,02,11,14,44,7.20
2017,02,11,14,45,7.20
2017,02,11,14,46,7.10
2017,02,11,14,47,7.10
2017,02,11,14,48,7.00
2017,02,11,14,49,7.00
2017,02,11,14,50,6.90
2017,02,11,14,51,6.90
2017,02,11,14,52,6.90
2017,02,11,14,53,6.90
2017,02,11,14,54,6.90
2017,02,11,14,55,6.80
2017,02,11,14,56,6.80
2017,02,11,14,57,6.80
2017,02,11,14,58,6.80
2017,02,11,14,59,6.80
2017,02,11,15,00,6.80
2017,02,11,15,01,6.80
2017,02,11,15,02,6.80
2017,02,11,15,03,6.80
2017,02,11,15,04,6.80
2017,02,11,15,05,6.80
2017,02,11,15,06,6.80
2017,02,11,15,07,6.80
2017,02,11,15,08,6.80
2017,02,11,15,09,6.80
2017,02,11,15,10,6.80
2017,02,11,15,11,6.80
2017,02,11,15,12,6.70
2017,02,11,15,13,6.70
2017,02,11,15,14,6.70
2017,02,11,15,15,6.70
2017,02,11,15,16,6.70
2017,02,11,15,17,6.70
2017,02,11,15,18,6.70
2017,02,11,15,19,6.70
2017,02,11,15,20,6.70
2017,02,11,15,21,6.70
2017,02,11,15,22,6.70
2017,02,11,15,23,6.70
2017,02,11,15,24,6.70
2017,02,11,15,25,6.70
2017,02,11,15,26,6.70
2017,02,11,15,27,6.70
2017,02,11,15,28,6.70
2017,02,11,15,29,6.70
2017,02,11,15,30,6.70
2017,02,11,15,31,6.70
2017,02,11,15,32,6.70
2017,02,11,15,33,6.70
2017,02,11,15,34,6.80
2017,02,11,15,35,6.80
2017,02,11,15,36,6.80
2017,02,11,15,37,6.80
2017,02,11,15,38,6.80
2017,02,11,15,39,6.80
2017,02,11,15,40,6.80
2017,02,11,15,41,6.80
2017,02,11,15,42,6.80
2017,02,11,15,43,6.90
2017,02,11,15,44,6.90
2017,02,11,15,45,6.90
2017,02,11,15,46,6.90
2017,02,11,15,47,6.90
2017,02,11,15,48,6.90
2017,02,11,15,49,6.90
2017,02,11,15,50,6.90
2017,02,11,15,51,6.90
2017,02,11,15,52,6.90
2017,02,11,15,53,6.90
2017,02,11,15,54,6.90
2017,02,11,15,55,6.80
2017,02,11,15,56,6.80
2017,02,11,15,57,6.80
2017,02,11,15,58,6.80
2017,02,11,15,59,6.80
2017,02,11,16,00,6.80
2017,02,11,16,01,6.80
2017,02,11,16,02,6.80
2017,02,11,16,03,6.80
2017,02,11,16,04,6.80
2017,02,11,16,05,6.80
2017,02,11,16,06,6.80
2017,02,11,16,07,6.80
2017,02,11,16,08,6.80
2017,02,11,16,09,6.80
2017,02,11,16,10,6.80
2017,02,11,16,11,6.80
2017,02,11,16,12,6.80
2017,02,11,16,13,6.80
2017,02,11,16,14,6.80
2017,02,11,16,15,6.70
2017,02,11,16,16,6.70
2017,02,11,16,17,6.70
2017,02,11,16,18,6.70
2017,02,11,16,19,6.70
2017,02,11,16,20,6.70
2017,02,11,16,21,6.70
2017,02,11,16,22,6.70
2017,02,11,16,23,6.70
2017,02,11,16,24,6.70
2017,02,11,16,25,6.70
2017,02,11,16,26,6.70
2017,02,11,16,27,6.70
2017,02,11,16,28,6.70
2017,02,11,16,29,6.70
2017,02,11,16,30,6.70
2017,02,11,16,31,6.70
2017,02,11,16,32,6.70
2017,02,11,16,33,6.70
2017,02,11,16,34,6.70
2017,02,11,16,35,6.70
2017,02,11,16,36,6.60
2017,02,11,16,37,6.60
2017,02,11,16,38,6.60
2017,02,11,16,39,6.60
2017,02,11,16,40,6.60
2017,02,11,16,41,6.60
2017,02,11,16,42,6.60
2017,02,11,16,43,6.60
2017,02,11,16,44,6.50
2017,02,11,16,45,6.50
2017,02,11,16,46,6.50
2017,02,11,16,47,6.50
2017,02,11,16,48,6.50
2017,02,11,16,49,6.50
2017,02,11,16,50,6.50
2017,02,11,16,51,6.50
2017,02,11,16,52,6.40
2017,02,11,16,53,6.40
2017,02,11,16,54,6.40
2017,02,11,16,55,6.40
2017,02,11,16,56,6.40
2017,02,11,16,57,6.40
2017,02,11,16,58,6.40
2017,02,11,16,59,6.40
2017,02,11,17,00,6.30
2017,02,11,17,01,6.30
2017,02,11,17,02,6.30
2017,02,11,17,03,6.30
2017,02,11,17,04,6.30
2017,02,11,17,05,6.30
2017,02,11,17,06,6.30
2017,02,11,17,07,6.30
2017,02,11,17,08,6.30
2017,02,11,17,09,6.30
2017,02,11,17,10,6.30
2017,02,11,17,11,6.20
2017,02,11,17,12,6.20
2017,02,11,17,13,6.20
2017,02,11,17,14,6.20
2017,02,11,17,15,6.20
2017,02,11,17,16,6.20
2017,02,11,17,17,6.20
2017,02,11,17,18,6.20
2017,02,11,17,19,6.20
2017,02,11,17,20,6.20
2017,02,11,17,21,6.10
2017,02,11,17,22,6.10
2017,02,11,17,23,6.10
2017,02,11,17,24,6.10
2017,02,11,17,25,6.10
2017,02,11,17,26,6.10
2017,02,11,17,27,6.10
2017,02,11,17,28,6.10
2017,02,11,17,29,6.00
2017,02,11,17,30,6.00
2017,02,11,17,31,6.00
2017,02,11,17,32,6.00
2017,02,11,17,33,5.90
2017,02,11,17,34,5.90
2017,02,11,17,35,5.90
2017,02,11,17,36,5.90
2017,02,11,17,37,5.80
2017,02,11,17,38,5.80
2017,02,11,17,39,5.80
2017,02,11,17,40,5.80
2017,02,11,17,41,5.70
2017,02,11,17,42,5.70
2017,02,11,17,43,5.70
2017,02,11,17,44,5.60
2017,02,11,17,45,5.60
2017,02,11,17,46,5.60
2017,02,11,17,47,5.50
2017,02,11,17,48,5.50
2017,02,11,17,49,5.50
2017,02,11,17,50,5.40
2017,02,11,17,51,5.40
2017,02,11,17,52,5.40
2017,02,11,17,53,5.30
2017,02,11,17,54,5.30
2017,02,11,17,55,5.30
2017,02,11,17,56,5.30
2017,02,11,17,57,5.30
2017,02,11,17,58,5.20
2017,02,11,17,59,5.20
2017,02,11,18,00,5.20
2017,02,11,18,01,5.20
2017,02,11,18,02,5.20
2017,02,11,18,03,5.20
2017,02,11,18,04,5.20
2017,02,11,18,05,5.20
2017,02,11,18,06,5.20